This is the latest recevied weather packets stored in our database for station/object W8DRH-13. If no packets are shown the sender has not sent any weather packets the latest 10 day(s).
| Time | Temp. | Humidity | Pressure | Rain* | Wind** | Luminosity | Snow |
|---|---|---|---|---|---|---|---|
| 1777846504 | 15° C | 43% | 1010.5 hPa | 0 mm | - | 186 W/m² | - |
| 1777846201 | 15° C | 42% | 1010.7 hPa | 0 mm | - | 186 W/m² | - |
| 1777845897 | 15° C | 43% | 1010.7 hPa | 0 mm | - | 182 W/m² | - |
| 1777845594 | 15° C | 43% | 1010.8 hPa | 0 mm | - | 174 W/m² | - |
| 1777845291 | 15° C | 43% | 1010.7 hPa | 0 mm | - | 158 W/m² | - |
| 1777844989 | 15° C | 43% | 1010.7 hPa | 0 mm | - | 165 W/m² | - |
| 1777844687 | 15° C | 42% | 1010.8 hPa | 0 mm | - | 180 W/m² | - |
| 1777844383 | 15° C | 43% | 1010.8 hPa | 0 mm | - | 169 W/m² | - |
| 1777844077 | 15.56° C | 42% | 1011 hPa | 0 mm | - | 180 W/m² | - |
| 1777843772 | 15.56° C | 42% | 1010.8 hPa | 0 mm | - | 248 W/m² | - |
| 1777843470 | 15.56° C | 42% | 1010.8 hPa | 0 mm | - | 272 W/m² | - |
| 1777843167 | 15.56° C | 42% | 1010.8 hPa | 0 mm | - | 273 W/m² | - |
| 1777842864 | 15.56° C | 42% | 1010.9 hPa | 0 mm | - | 271 W/m² | - |
| 1777842559 | 15.56° C | 42% | 1010.9 hPa | 0 mm | - | 278 W/m² | - |
| 1777842256 | 15.56° C | 41% | 1011.1 hPa | 0 mm | - | 296 W/m² | - |
| 1777841951 | 15.56° C | 42% | 1011.1 hPa | 0 mm | - | 328 W/m² | - |
| 1777841649 | 15.56° C | 43% | 1011.1 hPa | 0 mm | - | 249 W/m² | - |
| 1777841344 | 15.56° C | 42% | 1011.1 hPa | 0 mm | - | 375 W/m² | - |
| 1777841042 | 15.56° C | 42% | 1011.3 hPa | 0 mm | - | 354 W/m² | - |
| 1777840739 | 15.56° C | 41% | 1011.5 hPa | 0 mm | - | 263 W/m² | - |
| 1777840436 | 15.56° C | 41% | 1011.3 hPa | 0 mm | - | 362 W/m² | - |
| 1777840133 | 15° C | 42% | 1011.3 hPa | 0 mm | - | 255 W/m² | - |
| 1777839831 | 15° C | 42% | 1011.4 hPa | 0 mm | - | 274 W/m² | - |
| 1777839529 | 15° C | 42% | 1011.4 hPa | 0 mm | - | 228 W/m² | - |
| 1777839226 | 15° C | 41% | 1011.5 hPa | 0 mm | - | 399 W/m² | - |
* Rain latest hour (hover to see other rain measurements)
** Current wind speed in m/s (hover to see current wind gust speed)